Location: Unspecified
(0.0000°N, 0.0000°E)
Time: 07:59:10
(UTC+00:00)

Starlink Launch 2 trailer - Visible Passes

Search period start: 09 December 2019 00:00
Search period end: 19 December 2019 00:00
Orbit: 279 x 281 km, 53.0° (Epoch: 13 November)

Date Brightness Start Highest point End Pass type
(mag) Time Alt. Az. Time Alt. Az. Time Alt. Az.
13 Dec 3.8 18:24:48 10° S 18:26:50 22° SE 18:28:39 11° ENE visible
14 Dec 2.2 18:26:15 10° SW 18:28:42 89° ESE 18:31:08 10° NE visible
15 Dec 4.5 18:28:32 10° WSW 18:30:34 23° NW 18:32:36 10° N visible
